Location: Pl�tzky
(52.0521°N, 11.8020°E)
Time: 03:09:20
(UTC+00:00)

APEX - Pass Details

Date: 22 November 2019
Orbit: 334 x 1122 km, 69.9° (Epoch: 10 December)

Event Time Altitude Azimuth Distance (km) Brightness Sun altitude
Rises 17:28:49 0° 226° (SW) 2,365 7.4 -20.3°
Reaches altitude 10° 17:31:02 10° 233° (SW) 1,419 6.3 -20.6°
Maximum altitude 17:33:56 41° 306° (NW) 532 3.5 -21.1°
Enters shadow 17:33:56 41° 306° (NW) 532 3.5 -21.1°
